TimePDT,TemperatureF,Dew PointF,Humidity,Sea Level PressureIn,VisibilityMPH,Wind Direction,Wind SpeedMPH,Gust SpeedMPH,PrecipitationIn,Events,Conditions,WindDirDegrees,DateUTC
12:53 AM,59.0,28.0,31,30.17,10.0,East,13.8,23.0,N/A,,Clear,100,2012-10-06 07:53:00
1:53 AM,57.9,27.0,31,30.17,10.0,East,15.0,27.6,N/A,,Clear,100,2012-10-06 08:53:00
2:53 AM,57.9,28.0,32,30.17,10.0,ESE,17.3,25.3,N/A,,Clear,110,2012-10-06 09:53:00
3:53 AM,57.0,28.0,33,30.16,10.0,East,19.6,27.6,N/A,,Clear,100,2012-10-06 10:53:00
4:53 AM,57.0,27.0,32,30.15,10.0,East,17.3,25.3,N/A,,Clear,100,2012-10-06 11:53:00
5:53 AM,55.9,27.0,33,30.16,10.0,East,17.3,23.0,N/A,,Clear,100,2012-10-06 12:53:00
7:53 AM,55.0,27.0,34,30.17,10.0,East,18.4,23.0,N/A,,Clear,90,2012-10-06 14:53:00
8:53 AM,57.9,27.0,31,30.17,10.0,East,20.7,26.5,N/A,,Clear,100,2012-10-06 15:53:00
9:53 AM,61.0,27.0,27,30.17,10.0,East,19.6,26.5,N/A,,Clear,100,2012-10-06 16:53:00
10:53 AM,64.0,28.0,26,30.16,10.0,ESE,19.6,-,N/A,,Clear,110,2012-10-06 17:53:00
11:53 AM,68.0,28.0,22,30.14,10.0,East,19.6,-,N/A,,Clear,100,2012-10-06 18:53:00
12:53 PM,72.0,28.0,20,30.12,10.0,East,13.8,24.2,N/A,,Clear,100,2012-10-06 19:53:00
1:53 PM,73.0,19.0,13,30.10,10.0,East,19.6,28.8,N/A,,Clear,90,2012-10-06 20:53:00
2:53 PM,73.9,18.0,12,30.08,10.0,East,21.9,28.8,N/A,,Clear,90,2012-10-06 21:53:00
3:53 PM,73.9,17.1,12,30.07,10.0,East,16.1,28.8,N/A,,Clear,80,2012-10-06 22:53:00
4:53 PM,73.0,16.0,11,30.06,10.0,East,16.1,24.2,N/A,,Clear,80,2012-10-06 23:53:00
5:53 PM,70.0,18.0,14,30.06,10.0,East,12.7,19.6,N/A,,Clear,80,2012-10-07 00:53:00
6:53 PM,64.9,25.0,22,30.05,10.0,East,9.2,-,N/A,,Clear,90,2012-10-07 01:53:00
7:53 PM,63.0,27.0,26,30.06,10.0,East,10.4,-,N/A,,Clear,90,2012-10-07 02:53:00
9:53 PM,63.0,27.0,26,30.06,10.0,East,12.7,-,N/A,,Clear,100,2012-10-07 04:53:00
10:53 PM,63.0,27.0,26,30.05,10.0,East,13.8,18.4,N/A,,Clear,100,2012-10-07 05:53:00
11:53 PM,62.1,27.0,26,30.05,10.0,East,13.8,25.3,N/A,,Clear,100,2012-10-07 06:53:00